Lexington Weather

Lexington, Massachusetts, USA

43°F
4/22/2024 8:40am 
  • Lexington Conditions: Clear
  • Temperature: 43.2°F / 6.2°CWarmer 3.8°F than last hour.
  • Dew Point: 27.1°FDecreased 2.6°Fsince last hour.
  • Relative Humidity: 53%Decreased 15.0% since last hour.
  • Wind: Calm, 10-min avg: Calm, gust: None
  • Barometer: 29.96 inRising 0.02  inHg/hr Rising Slowly
  • Visibility: 10 miles
  • Rain Today: 0.00 in
  •   

Regional Weather Roundup
for Boston, MA

        
000
ASUS41 KBOX 171210
RWRBOX

REGIONAL WEATHER ROUNDUP
NATIONAL WEATHER SERVICE BOSTON/NORTON MA
800 AM EDT WED APR 17 2024

NOTE:  "FAIR" INDICATES FEW OR NO CLOUDS BELOW 12,000 FEET WITH NO 
SIGNIFICANT WEATHER AND/OR OBSTRUCTIONS TO VISIBILITY.

MAZALL-171300-
EASTERN MASSACHUSETTS
  
CITY           SKY/WX    TMP DP  RH WIND       PRES   REMARKS
BOSTON         MOSUNNY   46  30  53 NE6       30.25S                  
6HR MIN TEMP:  42; 6HR MAX TEMP:  49;                                

BEVERLY        SUNNY     45  33  63 N5        30.24S                  
LAWRENCE       SUNNY     44  28  53 NE6       30.27R                  
BEDFORD        SUNNY     45  32  60 NE3       30.24S                  
NORWOOD        SUNNY     48  32  53 NE9       30.24S                  
MARSHFIELD     SUNNY     46  36  66 NE8       30.24S                  
PLYMOUTH       SUNNY     47  37  68 NE8       30.23S                  
TAUNTON        SUNNY     49  35  58 MISG      30.24S                  
NEW BEDFORD    SUNNY     49  37  63 NE13      30.23R                  
$$

MAZALL-171300-
CAPE COD AND THE ISLANDS
  
CITY           SKY/WX    TMP DP  RH WIND       PRES   REMARKS
FALMOUTH       SUNNY     46  37  71 E12       30.22F                  
HYANNIS        SUNNY     46  36  68 NE8       30.21F                  
CHATHAM        SUNNY     46  36  68 NE12      30.23S                  
PROVINCETOWN   SUNNY     46  36  68 NE10      30.24S                  
NANTUCKET      SUNNY     47  37  68 NE10G21   30.21S                  
MARTHAS VNYRD  SUNNY     49  38  65 E12       30.22R                  
$$
 
MAZALL-171300-
CENTRAL AND WESTERN MASSACHUSETTS
  
CITY           SKY/WX    TMP DP  RH WIND       PRES   REMARKS
WORCESTER      SUNNY     45  33  63 VRB7      30.22R                  
6HR MIN TEMP:  42; 6HR MAX TEMP:  48;                                

FITCHBURG      SUNNY     45  33  63 SE7       30.25R                  
ORANGE         MOSUNNY   41  35  79 CALM      30.25R                  
SPRINGFIELD    NOT AVBL                                               
WESTFIELD      MOSUNNY   47  34  60 N8        30.23R                  
NORTH ADAMS    MOSUNNY   41  34  76 SE3       30.23S                  
PITTSFIELD     MOSUNNY   41  33  73 CALM      30.20S                  
$$
 
RIZALL-171300-
RHODE ISLAND
  
CITY           SKY/WX    TMP DP  RH WIND       PRES   REMARKS
PROVIDENCE     MOSUNNY   47  34  60 NE8       30.24R                  
6HR MIN TEMP:  42; 6HR MAX TEMP:  53;                                

NEWPORT        PTSUNNY   45  34  65 NE8       30.22S                  
BLOCK ISLAND   SUNNY     46  39  76 NE10      30.23R                  
SMITHFIELD     MOSUNNY   46  32  58 E8        30.24R                  
WESTERLY       SUNNY     49  36  61 NE9       30.23R                  
$$
 
CTZALL-171300-
CONNECTICUT
  
CITY           SKY/WX    TMP DP  RH WIND       PRES   REMARKS
BRADLEY INTL   PTSUNNY   50  35  56 N7        30.24R                  
6HR MIN TEMP:  43; 6HR MAX TEMP:  52;                                

HARTFORD       MOSUNNY   51  37  58 N3        30.23R                  
PLAINVILLE     FAIR      47  36  64 NE6       30.23R                  
BRIDGEPORT     MOSUNNY   53  37  54 E14       30.22R                  
DANBURY        MOSUNNY   51  35  54 NE6       30.22R                  
GROTON         SUNNY     51  36  56 NE9       30.22R                  
NEW HAVEN      MOSUNNY   54  37  52 E9        30.22R                  
CHESTER        MOSUNNY   52  34  50 VRB6      30.23R                  
MERIDEN        MOSUNNY   52  34  50 CALM      30.23R                  
WILLIMANTIC    SUNNY     45  38  76 CALM      30.23R                  
OXFORD         MOSUNNY   48  34  58 VRB7      30.22R                  
$$

MEZ002-015-021-024-NHZ003-005-008-011-012-014-VTZ005-008-171300-
NORTHERN NEW ENGLAND
  
CITY           SKY/WX    TMP DP  RH WIND       PRES   REMARKS
PORTLAND ME    MOSUNNY   42  26  53 CALM      30.25R                  
6HR MIN TEMP:  35; 6HR MAX TEMP:  42;                                

BANGOR ME      MOSUNNY   42  25  50 N14       30.20S                  
CONCORD NH     SUNNY     41  31  67 CALM      30.24S                  
MANCHESTER NH  MOSUNNY   44  26  49 SE3       30.24R                  
NASHUA NH      SUNNY     44  33  65 VRB3      30.26R                  
PORTSMOUTH NH  MOSUNNY   44  23  43 NE7       30.24F                  
JAFFREY NH     MOSUNNY   41  35  79 CALM      30.22S                  
KEENE NH       MOSUNNY   39  33  79 CALM      30.25R                  
BURLINGTON VT  MOSUNNY   37  29  72 CALM      30.27S                  
MT. WASHINGTON MOSUNNY   21  16  79 NW32        N/A  WCI   2          
$$

NYZ052-076-171300-
EASTERN NEW YORK
  
CITY           SKY/WX    TMP DP  RH WIND       PRES   REMARKS
ALBANY         PTSUNNY   45  28  51 N8        30.24S                  
6HR MIN TEMP:  41; 6HR MAX TEMP:  47;                                

NEW YORK CITY  PTSUNNY   53  36  52 NE13      30.19S                  
6HR MIN TEMP:  50; 6HR MAX TEMP:  53;                                

$$
 
ANZALL-171300-
MARINE OBSERVATIONS
  
STATION/POSITION TIME  TEMP    WIND        PRES    VSBY  WAVE
                       AIR SEA DIR/SP/G                  HT/PER
                 (UTC) (F)     (DEG/KT/KT) (MB)    (MI)  (FT/S)
BOSTON BUOY      1150   44      50/  8/ 10 1023.7R         3/ 5
BUZZARDS BAY     1100   46      40/ 14/ 16 1023.5R
NANTUCKET SOUND  1150   46 47   60/ 14/ 16 1022.8F         2/ 3
MASS BAY-STELLWA 1004   44 45   30/ 12/ 16 1023.8R  1 7/8  4/ 5
ISLE OF SHOALS   1100   42      30/ 10/ 11 1023.8R
S OF BLOCK IS    1156      45                N/A           3/ 8
$$

......................KEY.........................
  SKY/WX - SKY CONDITION/PRESENT WEATHER
  TMP    - TEMPERATURE IN FAHRENHEIT
  DWPT   - DEWPOINT IN FAHRENHEIT
  RH     - RELATIVE HUMIDITY IN PERCENT
  WIND   - DIRECTION AND SPEED IN MPH
  PRES   - MEAN SEA LEVEL PRESSURE IN INCHES OF HG
  WCI    - WIND CHILL INDEX
  VSB    - VISIBILITY IN MILES
  HX     - HEAT INDEX
  TC     - TEMPERATURE IN CELSIUS
  VRB    - VARIABLE WIND DIRECTION
  N/A    - NOT AVAILABLE
  
      

Other recent Regional Weather Roundups

Mon Apr 22, 8:10am EDT

Mon Apr 22, 7:10am EDT

Mon Apr 22, 6:10am EDT

Mon Apr 22, 5:10am EDT

Mon Apr 22, 4:10am EDT

Mon Apr 22, 3:10am EDT

Mon Apr 22, 2:10am EDT

Mon Apr 22, 1:10am EDT

Mon Apr 22, 12:10am EDT

Sun Apr 21, 11:10pm EDT

Sun Apr 21, 10:10pm EDT

Sun Apr 21, 9:10pm EDT

Sun Apr 21, 8:10pm EDT

Sun Apr 21, 7:10pm EDT

Sun Apr 21, 6:10pm EDT

Sun Apr 21, 5:10pm EDT

Sun Apr 21, 4:10pm EDT

Sun Apr 21, 3:10pm EDT

Sun Apr 21, 2:10pm EDT

Sun Apr 21, 1:10pm EDT

Sun Apr 21, 12:10pm EDT

Sun Apr 21, 11:10am EDT

Sun Apr 21, 10:10am EDT

Sun Apr 21, 9:10am EDT

Sun Apr 21, 8:10am EDT

Sun Apr 21, 7:10am EDT

Sun Apr 21, 6:10am EDT

Sun Apr 21, 5:10am EDT

Sun Apr 21, 4:10am EDT

Sun Apr 21, 3:10am EDT

Sun Apr 21, 2:10am EDT

Sun Apr 21, 1:10am EDT

Sun Apr 21, 12:10am EDT

Sat Apr 20, 11:10pm EDT

Sat Apr 20, 10:10pm EDT

Sat Apr 20, 9:10pm EDT

Sat Apr 20, 8:10pm EDT

Sat Apr 20, 7:10pm EDT

Sat Apr 20, 6:10pm EDT

Sat Apr 20, 5:10pm EDT

Sat Apr 20, 4:10pm EDT

Sat Apr 20, 3:10pm EDT

Sat Apr 20, 2:10pm EDT

Sat Apr 20, 1:10pm EDT

Sat Apr 20, 12:10pm EDT

Sat Apr 20, 11:10am EDT

Sat Apr 20, 10:10am EDT

Sat Apr 20, 9:10am EDT

Sat Apr 20, 8:10am EDT

Sat Apr 20, 7:10am EDT

Sat Apr 20, 6:10am EDT

Sat Apr 20, 5:10am EDT

Sat Apr 20, 4:10am EDT

Sat Apr 20, 3:10am EDT

Sat Apr 20, 2:10am EDT

Sat Apr 20, 1:10am EDT

Sat Apr 20, 12:10am EDT

Fri Apr 19, 11:10pm EDT

Fri Apr 19, 10:10pm EDT

Fri Apr 19, 9:10pm EDT

Fri Apr 19, 8:10pm EDT

Fri Apr 19, 7:10pm EDT

Fri Apr 19, 6:10pm EDT

Fri Apr 19, 5:10pm EDT

Fri Apr 19, 4:10pm EDT

Fri Apr 19, 3:10pm EDT

Fri Apr 19, 2:10pm EDT

Fri Apr 19, 1:10pm EDT

Fri Apr 19, 12:10pm EDT

Fri Apr 19, 11:10am EDT

Fri Apr 19, 10:10am EDT

Fri Apr 19, 9:10am EDT

Fri Apr 19, 8:10am EDT

Fri Apr 19, 7:10am EDT

Fri Apr 19, 6:10am EDT

Fri Apr 19, 5:10am EDT

Fri Apr 19, 4:10am EDT

Fri Apr 19, 3:10am EDT

Fri Apr 19, 2:10am EDT

Fri Apr 19, 1:10am EDT

Fri Apr 19, 12:10am EDT

Thu Apr 18, 11:10pm EDT

Thu Apr 18, 10:10pm EDT

Thu Apr 18, 9:10pm EDT

Thu Apr 18, 8:10pm EDT

Thu Apr 18, 7:10pm EDT

Thu Apr 18, 6:10pm EDT

Thu Apr 18, 5:10pm EDT

Thu Apr 18, 4:10pm EDT

Thu Apr 18, 3:10pm EDT

Thu Apr 18, 2:10pm EDT

Thu Apr 18, 1:10pm EDT

Thu Apr 18, 12:10pm EDT

Thu Apr 18, 11:10am EDT

Thu Apr 18, 10:10am EDT

Thu Apr 18, 9:10am EDT

Thu Apr 18, 8:10am EDT

Thu Apr 18, 7:10am EDT

Thu Apr 18, 6:10am EDT

Thu Apr 18, 5:10am EDT

Thu Apr 18, 4:10am EDT

Thu Apr 18, 3:10am EDT

Thu Apr 18, 2:10am EDT

Thu Apr 18, 1:10am EDT

Thu Apr 18, 12:10am EDT

Wed Apr 17, 11:10pm EDT

Wed Apr 17, 10:10pm EDT

Wed Apr 17, 9:10pm EDT

Wed Apr 17, 8:10pm EDT

Wed Apr 17, 7:10pm EDT

Wed Apr 17, 6:10pm EDT

Wed Apr 17, 5:10pm EDT

Wed Apr 17, 4:10pm EDT

Wed Apr 17, 3:10pm EDT

Wed Apr 17, 2:10pm EDT

Wed Apr 17, 1:10pm EDT

Wed Apr 17, 12:10pm EDT

Wed Apr 17, 11:10am EDT

Wed Apr 17, 10:10am EDT

Wed Apr 17, 9:10am EDT

Wed Apr 17, 7:10am EDT

Wed Apr 17, 6:10am EDT

Wed Apr 17, 5:10am EDT

Wed Apr 17, 4:10am EDT

Wed Apr 17, 3:10am EDT

Wed Apr 17, 2:10am EDT

Wed Apr 17, 1:10am EDT

Wed Apr 17, 12:10am EDT

Tue Apr 16, 11:10pm EDT

Tue Apr 16, 10:10pm EDT

Tue Apr 16, 9:10pm EDT

Tue Apr 16, 8:10pm EDT

Tue Apr 16, 7:10pm EDT

Tue Apr 16, 6:10pm EDT

Tue Apr 16, 5:10pm EDT

Tue Apr 16, 4:10pm EDT

Tue Apr 16, 3:10pm EDT

Tue Apr 16, 2:10pm EDT

Tue Apr 16, 1:10pm EDT

Tue Apr 16, 12:10pm EDT

Tue Apr 16, 11:10am EDT

Tue Apr 16, 10:10am EDT

Tue Apr 16, 9:10am EDT

Tue Apr 16, 8:10am EDT

Tue Apr 16, 7:10am EDT

Tue Apr 16, 6:10am EDT

Tue Apr 16, 5:10am EDT

Tue Apr 16, 4:10am EDT

Tue Apr 16, 3:10am EDT

Tue Apr 16, 2:10am EDT

Tue Apr 16, 1:10am EDT

Tue Apr 16, 12:10am EDT

Mon Apr 15, 11:10pm EDT

Mon Apr 15, 10:10pm EDT

Mon Apr 15, 9:10pm EDT

Mon Apr 15, 8:10pm EDT

Mon Apr 15, 7:10pm EDT

Mon Apr 15, 6:10pm EDT

Mon Apr 15, 5:10pm EDT

Mon Apr 15, 4:10pm EDT

Mon Apr 15, 3:10pm EDT

Mon Apr 15, 2:10pm EDT

Mon Apr 15, 1:10pm EDT

Mon Apr 15, 12:10pm EDT

Mon Apr 15, 11:10am EDT

Mon Apr 15, 10:10am EDT

Mon Apr 15, 9:10am EDT